Home   Weather   Davenport   Past weeks
Flag for USA

Past Weather in Davenport, Iowa, USA — Yesterday and Last 2 Weeks

Now
80 °F

Scattered clouds.


Feels Like: 81 °F
Forecast: 87 / 65 °F
Wind: 5 mph from South

Location: Davenport Municipal Airport

Current Time: Jun 26, 2019 at 11:24:23 am

Latest Report: Jun 26, 2019 at 10:52 am


Visibility: 10 mi

Pressure: 30.05 "Hg

Humidity: 54%

Dew Point: 62 °F

Location of DavenportLocation

Past Weather in Davenport — Graph

°F

Davenport Temperature Yesterday

Maximum temperature yesterday: 85 °F (at 3:52 pm)
Minimum temperature yesterday: 62 °F (at 3:52 am)
Average temperature yesterday: 75 °F

High & Low Weather Summary for the Past Weeks

 TemperatureHumidityPressure
High85 °F (Jun 25, 3:52 pm)94% (Jun 15, 10:21 am)30.16 "Hg (Jun 15, 10:21 am)
Low52 °F (Jun 13, 3:52 am)20% (Jun 11, 1:52 pm)29.62 "Hg (Jun 24, 2:52 am)
Average68 °F74%29.86 "Hg
* Reported Jun 11 9:52 am — Jun 26 9:52 am, Davenport. Weather by CustomWeather, © 2019

Note: Actual official high and low records may vary slightly from our data, if they occured in-between our weather recording intervals... More about our weather records

Advertising

Davenport Weather History for the Previous 24 Hours

Scroll right to see more
 ConditionsComfort  
Time TempWeatherWind HumidityBarometerVisibility
9:52 am
Wed, Jun 26
78 °FSunny.6 mph58%30.05 "Hg10 mi
8:52 am74 °FPartly sunny.6 mph69%30.04 "Hg10 mi
7:52 am70 °FScattered clouds.3 mph79%30.04 "Hg10 mi
6:52 am67 °FSunny.3 mph85%30.00 "Hg10 mi
5:52 am65 °FSunny.3 mph87%30.01 "Hg10 mi
4:52 am66 °FClear.6 mph81%30.01 "Hg10 mi
3:52 am67 °FPassing clouds.No wind79%29.99 "Hg10 mi
2:49 am68 °FPassing clouds.No wind76%29.98 "Hg10 mi
2:34 am68 °FThunderstorms. Passing clouds.6 mph76%30.02 "Hg10 mi
2:18 am69 °FThundershowers. Passing clouds.7 mph73%30.01 "Hg10 mi
1:52 am69 °FPassing clouds.8 mph73%29.99 "Hg10 mi
12:52 am69 °FClear.8 mph76%29.96 "Hg10 mi
11:52 pm
Tue, Jun 25
70 °FClear.7 mph73%29.95 "Hg10 mi
10:52 pm74 °FClear.8 mph69%29.93 "Hg10 mi
9:52 pm76 °FClear.9 mph62%29.94 "Hg10 mi
8:52 pm78 °FClear.8 mph56%29.88 "Hg10 mi
7:52 pm81 °FSunny.10 mph51%29.88 "Hg10 mi
6:52 pm83 °FSunny.10 mph46%29.86 "Hg10 mi
5:52 pm84 °FSunny.18 mph45%29.85 "Hg10 mi
4:52 pm83 °FScattered clouds.16 mph44%29.86 "Hg10 mi
3:52 pm85 °FPassing clouds.15 mph45%29.85 "Hg10 mi
2:52 pm84 °FScattered clouds.14 mph49%29.85 "Hg10 mi
1:52 pm83 °FPassing clouds.13 mph53%29.85 "Hg10 mi
12:52 pm81 °FScattered clouds.20 mph54%29.85 "Hg10 mi
11:52 am80 °FSunny.17 mph56%29.85 "Hg10 mi
Weather by CustomWeather, © 2019

See weather overview